owner,sensor,date,latitude,longitude,vertical_datum,wind_speed,wind_to_direction,wind_speed_of_gust,qcFlag 
TABS,ioos:station:wmo:42046:1,2014-08-01T00:00:00Z,27.8903,-94.0367,4.0,1.157670074,70.31250892,1.77,'11111222,11111222,11111222' 
TABS,ioos:station:wmo:42046:1,2014-08-01T00:30:00Z,27.8903,-94.0367,4.0,1.763887752,131.5529369,2.82,'11111222,11111222,11111222' 
TABS,ioos:station:wmo:42046:1,2014-08-01T01:00:00Z,27.8903,-94.0367,4.0,2.937158491,146.5266348,3.85,'11111222,11111222,11111222' 
TABS,ioos:station:wmo:42046:1,2014-08-01T01:30:00Z,27.8903,-94.0367,4.0,4.239669798,153.0725956,4.95,'11111222,11111222,11111222' 
TABS,ioos:station:wmo:42046:1,2014-08-01T02:00:00Z,27.8903,-94.0367,4.0,4.406722138,156.4602262,5.24,'11111222,11111222,11111222' 
TABS,ioos:station:wmo:42046:1,2014-08-01T02:30:00Z,27.8903,-94.0367,4.0,5.080354318,153.3343489,6.36,'11111222,11111222,11111222' 
TABS,ioos:station:wmo:42046:1,2014-08-01T03:00:00Z,27.8903,-94.0367,4.0,5.006246099,140.2680005,5.82,'11111222,11111222,11111222' 
TABS,ioos:station:wmo:42046:1,2014-08-01T03:30:00Z,27.8903,-94.0367,4.0,4.472001789,160.673931,5.4,'11111222,11111222,11111222' 
TABS,ioos:station:wmo:42046:1,2014-08-01T04:00:00Z,27.8903,-94.0367,4.0,5.652229649,167.1195922,6.51,'11111222,11111222,11111222' 
TABS,ioos:station:wmo:42046:1,2014-08-01T04:30:00Z,27.8903,-94.0367,4.0,5.918251431,158.59436,7.15,'11111222,11111222,11111222' 
TABS,ioos:station:wmo:42046:1,2014-08-01T05:00:00Z,27.8903,-94.0367,4.0,5.765847726,158.1065885,6.86,'11111222,11111222,11111222' 
TABS,ioos:station:wmo:42046:1,2014-08-01T05:30:00Z,27.8903,-94.0367,4.0,5.92622983,161.198422,7.15,'11111222,11111222,11111222' 
TABS,ioos:station:wmo:42046:1,2014-08-01T06:00:00Z,27.8903,-94.0367,4.0,5.921908476,164.6263274,7.22,'11111222,11111222,11111222' 
TABS,ioos:station:wmo:42046:1,2014-08-01T06:30:00Z,27.8903,-94.0367,4.0,6.081586964,168.5240163,7.08,'11111222,11111222,11111222' 
TABS,ioos:station:wmo:42046:1,2014-08-01T07:00:00Z,27.8903,-94.0367,4.0,5.363357158,174.6510455,6.58,'11111222,11111222,11111222' 
TABS,ioos:station:wmo:42046:1,2014-08-01T07:30:00Z,27.8903,-94.0367,4.0,6.104465579,176.0550335,7.46,'11111222,11111222,11111222' 
TABS,ioos:station:wmo:42046:1,2014-08-01T08:00:00Z,27.8903,-94.0367,4.0,6.661080993,172.2350626,8.01,'11111222,11111222,11111222' 
TABS,ioos:station:wmo:42046:1,2014-08-01T08:30:00Z,27.8903,-94.0367,4.0,5.938097338,182.9927057,6.54,'11111222,11111222,11111222' 
TABS,ioos:station:wmo:42046:1,2014-08-01T09:00:00Z,27.8903,-94.0367,4.0,5.424029867,185.3954624,6.63,'11111222,11111222,11111222' 
TABS,ioos:station:wmo:42046:1,2014-08-01T09:30:00Z,27.8903,-94.0367,4.0,5.204930355,189.7339661,6.08,'11111222,11111222,11111222' 
TABS,ioos:station:wmo:42046:1,2014-08-01T10:00:00Z,27.8903,-94.0367,4.0,5.970142377,184.7080517,7.2,'11111222,11111222,11111222' 
TABS,ioos:station:wmo:42046:1,2014-08-01T10:30:00Z,27.8903,-94.0367,4.0,5.041200254,181.2505122,5.98,'11111222,11111222,11111222' 
TABS,ioos:station:wmo:42046:1,2014-08-01T11:00:00Z,27.8903,-94.0367,4.0,5.074248713,184.2949837,6.05,'11111222,11111222,11111222' 
TABS,ioos:station:wmo:42046:1,2014-08-01T11:30:00Z,27.8903,-94.0367,4.0,5.85884801,212.5238297,7.12,'11111222,11111222,11111222' 
TABS,ioos:station:wmo:42046:1,2014-08-01T12:00:00Z,27.8903,-94.0367,4.0,5.762924605,224.9298039,6.82,'11111222,11111222,11111222' 
TABS,ioos:station:wmo:42046:1,2014-08-01T12:30:00Z,27.8903,-94.0367,4.0,5.723862332,218.3316349,6.57,'11111222,11111222,11111222' 
TABS,ioos:station:wmo:42046:1,2014-08-01T13:00:00Z,27.8903,-94.0367,4.0,5.395600059,224.3243033,6.3,'11111222,11111222,11111222' 
TABS,ioos:station:wmo:42046:1,2014-08-01T13:30:00Z,27.8903,-94.0367,4.0,5.403008421,228.0759432,6.45,'11111222,11111222,11111222' 
TABS,ioos:station:wmo:42046:1,2014-08-01T14:00:00Z,27.8903,-94.0367,4.0,5.84852973,234.815445,6.76,'11111222,11111222,11111222' 
TABS,ioos:station:wmo:42046:1,2014-08-01T14:30:00Z,27.8903,-94.0367,4.0,5.597713819,239.0363159,6.56,'11111222,11111222,11111222' 
TABS,ioos:station:wmo:42046:1,2014-08-01T15:00:00Z,27.8903,-94.0367,4.0,5.338923112,239.4964381,6.26,'11111222,11111222,11111222' 
TABS,ioos:station:wmo:42046:1,2014-08-01T15:30:00Z,27.8903,-94.0367,4.0,4.991963542,244.615668,5.84,'11111222,11111222,11111222' 
TABS,ioos:station:wmo:42046:1,2014-08-01T16:00:00Z,27.8903,-94.0367,4.0,4.542521326,248.9715939,5.18,'11111222,11111222,11111222' 
TABS,ioos:station:wmo:42046:1,2014-08-01T16:30:00Z,27.8903,-94.0367,4.0,4.500011111,251.2027233,5.28,'11111222,11111222,11111222' 
TABS,ioos:station:wmo:42046:1,2014-08-01T17:00:00Z,27.8903,-94.0367,4.0,4.163472109,248.7352933,4.84,'11111222,11111222,11111222' 
TABS,ioos:station:wmo:42046:1,2014-08-01T17:30:00Z,27.8903,-94.0367,4.0,3.97966079,248.7868169,5.03,'11111222,11111222,11111222' 
TABS,ioos:station:wmo:42046:1,2014-08-01T18:00:00Z,27.8903,-94.0367,4.0,4.405462518,250.7836515,5.03,'11111222,11111222,11111222' 
TABS,ioos:station:wmo:42046:1,2014-08-01T18:30:00Z,27.8903,-94.0367,4.0,4.459293666,249.2485067,5.12,'11111222,11111222,11111222' 
TABS,ioos:station:wmo:42046:1,2014-08-01T19:00:00Z,27.8903,-94.0367,4.0,4.256724093,256.5514164,4.93,'11111222,11111222,11111222' 
TABS,ioos:station:wmo:42046:1,2014-08-01T19:30:00Z,27.8903,-94.0367,4.0,4.096461888,273.2186146,4.73,'11111222,11111222,11111222' 
TABS,ioos:station:wmo:42046:1,2014-08-01T20:00:00Z,27.8903,-94.0367,4.0,4.081666326,275.9061273,4.68,'11111222,11111222,11111222' 
TABS,ioos:station:wmo:42046:1,2014-08-01T20:30:00Z,27.8903,-94.0367,4.0,3.975034591,272.8839924,4.97,'11111222,11111222,11111222' 
TABS,ioos:station:wmo:42046:1,2014-08-01T21:00:00Z,27.8903,-94.0367,4.0,3.681793041,276.2370655,4.51,'11111222,11111222,11111222' 
TABS,ioos:station:wmo:42046:1,2014-08-01T21:30:00Z,27.8903,-94.0367,4.0,3.409926685,274.3729211,4.18,'11111222,11111222,11111222' 
TABS,ioos:station:wmo:42046:1,2014-08-01T22:00:00Z,27.8903,-94.0367,4.0,3.470619541,277.6164442,3.97,'11111222,11111222,11111222' 
TABS,ioos:station:wmo:42046:1,2014-08-01T22:30:00Z,27.8903,-94.0367,4.0,3.367194678,273.7461533,3.78,'11111222,11111222,11111222' 
TABS,ioos:station:wmo:42046:1,2014-08-01T23:00:00Z,27.8903,-94.0367,4.0,2.939812919,274.6827046,3.54,'11111222,11111222,11111222' 
TABS,ioos:station:wmo:42046:1,2014-08-01T23:30:00Z,27.8903,-94.0367,4.0,2.273697429,279.8765781,2.86,'11111222,11111222,11111222' 
TABS,ioos:station:wmo:42046:1,2014-08-02T00:00:00Z,27.8903,-94.0367,4.0,1.574579309,265.6292132,2.22,'11111222,11111222,11111222' 
TABS,ioos:station:wmo:42046:1,2014-08-02T00:30:00Z,27.8903,-94.0367,4.0,0.901387819,252.5701779,1.54,'11111222,11111222,11111222' 
TABS,ioos:station:wmo:42046:1,2014-08-02T01:00:00Z,27.8903,-94.0367,4.0,0.968968524,211.0653027,1.34,'11111222,11111222,11111222' 
TABS,ioos:station:wmo:42046:1,2014-08-02T01:30:00Z,27.8903,-94.0367,4.0,0.62968246,226.9306882,0.9,'11111222,11111222,11111222' 
TABS,ioos:station:wmo:42046:1,2014-08-02T02:00:00Z,27.8903,-94.0367,4.0,0.470106371,209.2915041,0.92,'11111222,11111222,11111222' 
TABS,ioos:station:wmo:42046:1,2014-08-02T02:30:00Z,27.8903,-94.0367,4.0,0.417252921,135.9713353,0.67,'11111222,11111222,11111222' 
TABS,ioos:station:wmo:42046:1,2014-08-02T03:00:00Z,27.8903,-94.0367,4.0,1.024890238,162.9797246,1.59,'11111222,11111222,11111222' 
TABS,ioos:station:wmo:42046:1,2014-08-02T03:30:00Z,27.8903,-94.0367,4.0,0.667607669,163.4654113,1.32,'11111222,11111222,11111222' 
TABS,ioos:station:wmo:42046:1,2014-08-02T04:00:00Z,27.8903,-94.0367,4.0,1.05848949,202.2036371,1.55,'11111222,11111222,11111222' 
TABS,ioos:station:wmo:42046:1,2014-08-02T04:30:00Z,27.8903,-94.0367,4.0,1.54870914,201.5954704,2.37,'11111222,11111222,11111222' 
TABS,ioos:station:wmo:42046:1,2014-08-02T05:00:00Z,27.8903,-94.0367,4.0,2.450734584,206.6697535,3.13,'11111222,11111222,11111222' 
TABS,ioos:station:wmo:42046:1,2014-08-02T05:30:00Z,27.8903,-94.0367,4.0,2.122286503,199.5450271,3.01,'11111222,11111222,11111222' 
TABS,ioos:station:wmo:42046:1,2014-08-02T06:00:00Z,27.8903,-94.0367,4.0,2.826305008,202.0274376,3.58,'11111222,11111222,11111222' 
TABS,ioos:station:wmo:42046:1,2014-08-02T06:30:00Z,27.8903,-94.0367,4.0,3.273178883,191.2757872,3.91,'11111222,11111222,11111222' 
TABS,ioos:station:wmo:42046:1,2014-08-02T07:00:00Z,27.8903,-94.0367,4.0,3.713354279,193.549925,4.43,'11111222,11111222,11111222' 
TABS,ioos:station:wmo:42046:1,2014-08-02T07:30:00Z,27.8903,-94.0367,4.0,4.40655194,201.8498586,5.06,'11111222,11111222,11111222' 
TABS,ioos:station:wmo:42046:1,2014-08-02T08:00:00Z,27.8903,-94.0367,4.0,4.363542139,194.7370556,5.44,'11111222,11111222,11111222' 
TABS,ioos:station:wmo:42046:1,2014-08-02T08:30:00Z,27.8903,-94.0367,4.0,4.906373406,213.9493072,5.75,'11111222,11111222,11111222' 
TABS,ioos:station:wmo:42046:1,2014-08-02T09:00:00Z,27.8903,-94.0367,4.0,4.607211738,219.0095245,5.61,'11111222,11111222,11111222' 
TABS,ioos:station:wmo:42046:1,2014-08-02T09:30:00Z,27.8903,-94.0367,4.0,4.234170521,233.6444012,4.99,'11111222,11111222,11111222' 
TABS,ioos:station:wmo:42046:1,2014-08-02T10:00:00Z,27.8903,-94.0367,4.0,4.073057819,251.8319975,5.03,'11111222,11111222,11111222' 
TABS,ioos:station:wmo:42046:1,2014-08-02T10:30:00Z,27.8903,-94.0367,4.0,4.038341244,255.5164451,4.83,'11111222,11111222,11111222' 
TABS,ioos:station:wmo:42046:1,2014-08-02T11:00:00Z,27.8903,-94.0367,4.0,4.1560077,279.4169713,5.8,'11111222,11111222,11111222' 
TABS,ioos:station:wmo:42046:1,2014-08-02T11:30:00Z,27.8903,-94.0367,4.0,3.6261412,306.3641818,4.36,'11111222,11111222,11111222' 
TABS,ioos:station:wmo:42046:1,2014-08-02T12:00:00Z,27.8903,-94.0367,4.0,3.40618555,321.07737,4.01,'11111222,11111222,11111222' 
TABS,ioos:station:wmo:42046:1,2014-08-02T12:30:00Z,27.8903,-94.0367,4.0,3.536566131,327.1186268,4.33,'11111222,11111222,11111222' 
TABS,ioos:station:wmo:42046:1,2014-08-02T13:00:00Z,27.8903,-94.0367,4.0,4.527306042,209.509562,5.7,'11111222,11111222,11111222' 
TABS,ioos:station:wmo:42046:1,2014-08-02T13:30:00Z,27.8903,-94.0367,4.0,4.533486517,276.9682404,6.38,'11111222,11111222,11111222' 
TABS,ioos:station:wmo:42046:1,2014-08-02T14:00:00Z,27.8903,-94.0367,4.0,2.578158257,284.1440104,3.5,'11111222,11111222,11111222' 
TABS,ioos:station:wmo:42046:1,2014-08-02T14:30:00Z,27.8903,-94.0367,4.0,4.226227632,296.8681378,5.12,'11111222,11111222,11111222' 
TABS,ioos:station:wmo:42046:1,2014-08-02T15:00:00Z,27.8903,-94.0367,4.0,4.754303314,316.8749754,5.43,'11111222,11111222,11111222' 
TABS,ioos:station:wmo:42046:1,2014-08-02T15:30:00Z,27.8903,-94.0367,4.0,6.227118114,307.9555931,7.41,'11111222,11111222,11111222' 
TABS,ioos:station:wmo:42046:1,2014-08-02T16:00:00Z,27.8903,-94.0367,4.0,4.558705957,295.0472064,5.36,'11111222,11111222,11111222' 
TABS,ioos:station:wmo:42046:1,2014-08-02T16:30:00Z,27.8903,-94.0367,4.0,6.033058926,278.2912521,6.73,'11111222,11111222,11111222' 
TABS,ioos:station:wmo:42046:1,2014-08-02T17:00:00Z,27.8903,-94.0367,4.0,5.614133949,297.9343453,6.87,'11111222,11111222,11111222' 
TABS,ioos:station:wmo:42046:1,2014-08-02T17:30:00Z,27.8903,-94.0367,4.0,5.450229353,322.6043447,6.28,'11111222,11111222,11111222' 
TABS,ioos:station:wmo:42046:1,2014-08-02T18:00:00Z,27.8903,-94.0367,4.0,5.210230321,333.9265965,6.34,'11111222,11111222,11111222' 
TABS,ioos:station:wmo:42046:1,2014-08-02T18:30:00Z,27.8903,-94.0367,4.0,4.879518419,341.9733358,5.71,'11111222,11111222,11111222' 
TABS,ioos:station:wmo:42046:1,2014-08-02T19:00:00Z,27.8903,-94.0367,4.0,5.166236541,337.7041602,6.0,'11111222,11111222,11111222' 
TABS,ioos:station:wmo:42046:1,2014-08-02T19:30:00Z,27.8903,-94.0367,4.0,4.269543301,342.4136461,5.03,'11111222,11111222,11111222' 
TABS,ioos:station:wmo:42046:1,2014-08-02T20:00:00Z,27.8903,-94.0367,4.0,2.804924241,344.2788985,3.85,'11111222,11111222,11111222' 
TABS,ioos:station:wmo:42046:1,2014-08-02T20:30:00Z,27.8903,-94.0367,4.0,3.26019938,329.1868038,4.01,'11111222,11111222,11111222' 
TABS,ioos:station:wmo:42046:1,2014-08-02T21:00:00Z,27.8903,-94.0367,4.0,2.678544381,321.974808,3.77,'11111222,11111222,11111222' 
TABS,ioos:station:wmo:42046:1,2014-08-02T21:30:00Z,27.8903,-94.0367,4.0,3.746691874,324.2310936,4.74,'11111222,11111222,11111222' 
TABS,ioos:station:wmo:42046:1,2014-08-02T22:00:00Z,27.8903,-94.0367,4.0,3.872531472,336.082424,4.93,'11111222,11111222,11111222' 
TABS,ioos:station:wmo:42046:1,2014-08-02T22:30:00Z,27.8903,-94.0367,4.0,4.368352092,340.1960232,6.25,'11111222,11111222,11111222' 
TABS,ioos:station:wmo:42046:1,2014-08-02T23:00:00Z,27.8903,-94.0367,4.0,5.182123117,351.1191512,6.45,'11111222,11111222,11111222' 
TABS,ioos:station:wmo:42046:1,2014-08-02T23:30:00Z,27.8903,-94.0367,4.0,5.507603835,355.4175831,6.8,'11111222,11111222,11111222' 
TABS,ioos:station:wmo:42046:1,2014-08-03T00:00:00Z,27.8903,-94.0367,4.0,5.262860439,354.6575261,6.42,'11111222,11111222,11111222' 
TABS,ioos:station:wmo:42046:1,2014-08-03T00:30:00Z,27.8903,-94.0367,4.0,5.33970973,353.0078805,6.56,'11111222,11111222,11111222' 
TABS,ioos:station:wmo:42046:1,2014-08-03T01:00:00Z,27.8903,-94.0367,4.0,4.852638458,355.863709,5.72,'11111222,11111222,11111222' 
TABS,ioos:station:wmo:42046:1,2014-08-03T01:30:00Z,27.8903,-94.0367,4.0,4.578394915,5.137556483,5.86,'11111222,11111222,11111222' 
TABS,ioos:station:wmo:42046:1,2014-08-03T02:00:00Z,27.8903,-94.0367,4.0,3.970604488,355.8113731,5.12,'11111222,11111222,11111222' 
TABS,ioos:station:wmo:42046:1,2014-08-03T02:30:00Z,27.8903,-94.0367,4.0,3.160268976,19.98284933,4.25,'11111222,11111222,11111222' 
TABS,ioos:station:wmo:42046:1,2014-08-03T03:00:00Z,27.8903,-94.0367,4.0,2.651980392,10.20799203,3.75,'11111222,11111222,11111222' 
TABS,ioos:station:wmo:42046:1,2014-08-03T03:30:00Z,27.8903,-94.0367,4.0,2.39415956,6.234255058,3.31,'11111222,11111222,11111222' 
TABS,ioos:station:wmo:42046:1,2014-08-03T04:00:00Z,27.8903,-94.0367,4.0,2.467164364,344.7243383,3.63,'11111222,11111222,11111222' 
TABS,ioos:station:wmo:42046:1,2014-08-03T04:30:00Z,27.8903,-94.0367,4.0,2.351701512,336.7052808,3.27,'11111222,11111222,11111222' 
TABS,ioos:station:wmo:42046:1,2014-08-03T05:00:00Z,27.8903,-94.0367,4.0,1.635267562,340.3460114,2.86,'11111222,11111222,11111222' 
TABS,ioos:station:wmo:42046:1,2014-08-03T05:30:00Z,27.8903,-94.0367,4.0,1.338693393,318.3308044,2.07,'11111222,11111222,11111222' 
TABS,ioos:station:wmo:42046:1,2014-08-03T06:00:00Z,27.8903,-94.0367,4.0,0.536003731,306.6560227,1.18,'11111222,11111222,11111222' 
TABS,ioos:station:wmo:42046:1,2014-08-03T06:30:00Z,27.8903,-94.0367,4.0,0.49244289,347.0924111,1.08,'11111222,11111222,11111222' 
TABS,ioos:station:wmo:42046:1,2014-08-03T07:00:00Z,27.8903,-94.0367,4.0,0.48754487,334.4859788,1.26,'11111222,11111222,11111222' 
TABS,ioos:station:wmo:42046:1,2014-08-03T07:30:00Z,27.8903,-94.0367,4.0,0.95131488,303.857031,1.48,'11111222,11111222,11111222' 
TABS,ioos:station:wmo:42046:1,2014-08-03T08:00:00Z,27.8903,-94.0367,4.0,0.104403065,343.3005844,0.39,'11111222,11111222,11111222' 
TABS,ioos:station:wmo:42046:1,2014-08-03T08:30:00Z,27.8903,-94.0367,4.0,1.091650127,294.9217122,1.97,'11111222,11111222,11111222' 
TABS,ioos:station:wmo:42046:1,2014-08-03T09:00:00Z,27.8903,-94.0367,4.0,1.726296614,296.1196951,2.72,'11111222,11111222,11111222' 
TABS,ioos:station:wmo:42046:1,2014-08-03T09:30:00Z,27.8903,-94.0367,4.0,2.375920874,298.3986866,3.17,'11111222,11111222,11111222' 
TABS,ioos:station:wmo:42046:1,2014-08-03T10:00:00Z,27.8903,-94.0367,4.0,2.423922441,290.5283315,3.15,'11111222,11111222,11111222' 
TABS,ioos:station:wmo:42046:1,2014-08-03T10:30:00Z,27.8903,-94.0367,4.0,2.127768784,285.5384887,2.72,'11111222,11111222,11111222' 
TABS,ioos:station:wmo:42046:1,2014-08-03T11:00:00Z,27.8903,-94.0367,4.0,2.353592998,273.1663191,3.16,'11111222,11111222,11111222' 
TABS,ioos:station:wmo:42046:1,2014-08-03T11:30:00Z,27.8903,-94.0367,4.0,2.456013029,276.5462755,3.24,'11111222,11111222,11111222' 
TABS,ioos:station:wmo:42046:1,2014-08-03T12:00:00Z,27.8903,-94.0367,4.0,2.3187281,289.9197264,2.91,'11111222,11111222,11111222' 
TABS,ioos:station:wmo:42046:1,2014-08-03T12:30:00Z,27.8903,-94.0367,4.0,2.018960128,275.3999608,2.88,'11111222,11111222,11111222' 
TABS,ioos:station:wmo:42046:1,2014-08-03T13:00:00Z,27.8903,-94.0367,4.0,1.634870025,262.26642,2.84,'11111222,11111222,11111222' 
TABS,ioos:station:wmo:42046:1,2014-08-03T13:30:00Z,27.8903,-94.0367,4.0,2.516445906,285.9140837,3.2,'11111222,11111222,11111222' 
TABS,ioos:station:wmo:42046:1,2014-08-03T14:00:00Z,27.8903,-94.0367,4.0,2.607316628,296.1718862,3.35,'11111222,11111222,11111222' 
TABS,ioos:station:wmo:42046:1,2014-08-03T14:30:00Z,27.8903,-94.0367,4.0,2.117404071,299.107101,2.78,'11111222,11111222,11111222' 
TABS,ioos:station:wmo:42046:1,2014-08-03T15:00:00Z,27.8903,-94.0367,4.0,2.670430677,286.5347992,3.64,'11111222,11111222,11111222' 
TABS,ioos:station:wmo:42046:1,2014-08-03T15:30:00Z,27.8903,-94.0367,4.0,2.690910627,271.4906283,3.73,'11111222,11111222,11111222' 
TABS,ioos:station:wmo:42046:1,2014-08-03T16:00:00Z,27.8903,-94.0367,4.0,2.841760018,272.0166192,3.62,'11111222,11111222,11111222' 
TABS,ioos:station:wmo:42046:1,2014-08-03T16:30:00Z,27.8903,-94.0367,4.0,3.361547263,276.4907565,4.16,'11111222,11111222,11111222' 
TABS,ioos:station:wmo:42046:1,2014-08-03T17:00:00Z,27.8903,-94.0367,4.0,3.343411431,285.6158064,4.86,'11111222,11111222,11111222' 
TABS,ioos:station:wmo:42046:1,2014-08-03T17:30:00Z,27.8903,-94.0367,4.0,3.980201,322.5541619,5.91,'11111222,11111222,11111222' 
TABS,ioos:station:wmo:42046:1,2014-08-03T18:00:00Z,27.8903,-94.0367,4.0,3.564393357,333.8661272,4.37,'11111222,11111222,11111222' 
TABS,ioos:station:wmo:42046:1,2014-08-03T18:30:00Z,27.8903,-94.0367,4.0,3.561137459,312.1545401,4.27,'11111222,11111222,11111222' 
TABS,ioos:station:wmo:42046:1,2014-08-03T19:00:00Z,27.8903,-94.0367,4.0,4.691311117,330.9215285,5.42,'11111222,11111222,11111222' 
TABS,ioos:station:wmo:42046:1,2014-08-03T19:30:00Z,27.8903,-94.0367,4.0,5.216301372,337.8108907,6.22,'11111222,11111222,11111222' 
TABS,ioos:station:wmo:42046:1,2014-08-03T20:00:00Z,27.8903,-94.0367,4.0,4.809095549,329.6490882,6.46,'11111222,11111222,11111222' 
TABS,ioos:station:wmo:42046:1,2014-08-03T20:30:00Z,27.8903,-94.0367,4.0,4.491970614,338.1747454,5.35,'11111222,11111222,11111222' 
TABS,ioos:station:wmo:42046:1,2014-08-03T21:00:00Z,27.8903,-94.0367,4.0,4.506273405,341.7659204,5.36,'11111222,11111222,11111222' 
TABS,ioos:station:wmo:42046:1,2014-08-03T21:30:00Z,27.8903,-94.0367,4.0,4.114583819,348.3621713,5.12,'11111222,11111222,11111222' 
TABS,ioos:station:wmo:42046:1,2014-08-03T22:00:00Z,27.8903,-94.0367,4.0,3.740922346,352.6278274,4.71,'11111222,11111222,11111222' 
TABS,ioos:station:wmo:42046:1,2014-08-03T22:30:00Z,27.8903,-94.0367,4.0,3.406420409,340.4478401,4.18,'11111222,11111222,11111222' 
TABS,ioos:station:wmo:42046:1,2014-08-03T23:00:00Z,27.8903,-94.0367,4.0,2.610306495,348.7329306,3.46,'11111222,11111222,11111222' 
TABS,ioos:station:wmo:42046:1,2014-08-03T23:30:00Z,27.8903,-94.0367,4.0,2.412343259,349.2488477,3.17,'11111222,11111222,11111222' 
TABS,ioos:station:wmo:42046:1,2014-08-04T00:00:00Z,27.8903,-94.0367,4.0,2.061552813,14.03600019,2.48,'11111222,11111222,11111222' 
TABS,ioos:station:wmo:42046:1,2014-08-04T00:30:00Z,27.8903,-94.0367,4.0,1.383979769,23.41576554,1.92,'11111222,11111222,11111222' 
TABS,ioos:station:wmo:42046:1,2014-08-04T01:00:00Z,27.8903,-94.0367,4.0,1.276126953,52.32157548,1.77,'11111222,11111222,11111222' 
TABS,ioos:station:wmo:42046:1,2014-08-04T01:30:00Z,27.8903,-94.0367,4.0,0.682495421,50.94653346,1.42,'11111222,11111222,11111222' 
TABS,ioos:station:wmo:42046:1,2014-08-04T02:00:00Z,27.8903,-94.0367,4.0,1.161550688,87.03864987,1.8,'11111222,11111222,11111222' 
TABS,ioos:station:wmo:42046:1,2014-08-04T02:30:00Z,27.8903,-94.0367,4.0,1.233288287,85.81467274,2.02,'11111222,11111222,11111222' 
TABS,ioos:station:wmo:42046:1,2014-08-04T03:00:00Z,27.8903,-94.0367,4.0,1.381303732,92.48996802,2.25,'11111222,11111222,11111222' 
TABS,ioos:station:wmo:42046:1,2014-08-04T03:30:00Z,27.8903,-94.0367,4.0,1.433771251,100.448214,2.08,'11111222,11111222,11111222' 
TABS,ioos:station:wmo:42046:1,2014-08-04T04:00:00Z,27.8903,-94.0367,4.0,2.060873601,91.66875446,2.61,'11111222,11111222,11111222' 
TABS,ioos:station:wmo:42046:1,2014-08-04T04:30:00Z,27.8903,-94.0367,4.0,1.693310367,80.48165218,2.87,'11111222,11111222,11111222' 
TABS,ioos:station:wmo:42046:1,2014-08-04T05:00:00Z,27.8903,-94.0367,4.0,2.297868578,94.74334469,2.68,'11111222,11111222,11111222' 
TABS,ioos:station:wmo:42046:1,2014-08-04T05:30:00Z,27.8903,-94.0367,4.0,2.04244951,92.80678461,2.74,'11111222,11111222,11111222' 
TABS,ioos:station:wmo:42046:1,2014-08-04T06:00:00Z,27.8903,-94.0367,4.0,2.135275158,94.02867516,2.68,'11111222,11111222,11111222' 
TABS,ioos:station:wmo:42046:1,2014-08-04T06:30:00Z,27.8903,-94.0367,4.0,1.749571376,102.2095121,2.25,'11111222,11111222,11111222' 
TABS,ioos:station:wmo:42046:1,2014-08-04T07:00:00Z,27.8903,-94.0367,4.0,1.142716063,81.44404085,1.91,'11111222,11111222,11111222' 
TABS,ioos:station:wmo:42046:1,2014-08-04T07:30:00Z,27.8903,-94.0367,4.0,0.678969808,80.67600911,1.37,'11111222,11111222,11111222' 
TABS,ioos:station:wmo:42046:1,2014-08-04T08:00:00Z,27.8903,-94.0367,4.0,0.50009999,268.8542398,0.76,'11111222,11111222,11111222' 
TABS,ioos:station:wmo:42046:1,2014-08-04T08:30:00Z,27.8903,-94.0367,4.0,1.184440796,310.5487312,1.63,'11111222,11111222,11111222' 
TABS,ioos:station:wmo:42046:1,2014-08-04T09:00:00Z,27.8903,-94.0367,4.0,1.458012346,306.6340282,1.91,'11111222,11111222,11111222' 
TABS,ioos:station:wmo:42046:1,2014-08-04T09:30:00Z,27.8903,-94.0367,4.0,2.049634114,340.3272075,2.43,'11111222,11111222,11111222' 
TABS,ioos:station:wmo:42046:1,2014-08-04T10:00:00Z,27.8903,-94.0367,4.0,2.536927275,345.8540271,3.17,'11111222,11111222,11111222' 
TABS,ioos:station:wmo:42046:1,2014-08-04T10:30:00Z,27.8903,-94.0367,4.0,2.295125269,347.4168565,3.0,'11111222,11111222,11111222' 
TABS,ioos:station:wmo:42046:1,2014-08-04T11:00:00Z,27.8903,-94.0367,4.0,2.884024965,322.8915787,3.51,'11111222,11111222,11111222' 
TABS,ioos:station:wmo:42046:1,2014-08-04T11:30:00Z,27.8903,-94.0367,4.0,2.662818056,308.2900737,3.17,'11111222,11111222,11111222' 
TABS,ioos:station:wmo:42046:1,2014-08-04T12:00:00Z,27.8903,-94.0367,4.0,3.206555785,288.5479147,4.07,'11111222,11111222,11111222' 
TABS,ioos:station:wmo:42046:1,2014-08-04T12:30:00Z,27.8903,-94.0367,4.0,3.812951613,272.2545697,4.36,'11111222,11111222,11111222' 
TABS,ioos:station:wmo:42046:1,2014-08-04T13:00:00Z,27.8903,-94.0367,4.0,4.03183581,285.2426193,4.76,'11111222,11111222,11111222' 
TABS,ioos:station:wmo:42046:1,2014-08-04T13:30:00Z,27.8903,-94.0367,4.0,3.024169307,307.4760919,3.77,'11111222,11111222,11111222' 
TABS,ioos:station:wmo:42046:1,2014-08-04T14:00:00Z,27.8903,-94.0367,4.0,3.275026717,308.3045277,3.98,'11111222,11111222,11111222' 
TABS,ioos:station:wmo:42046:1,2014-08-04T14:30:00Z,27.8903,-94.0367,4.0,3.342409311,331.5946095,4.02,'11111222,11111222,11111222' 
TABS,ioos:station:wmo:42046:1,2014-08-04T15:00:00Z,27.8903,-94.0367,4.0,3.708072275,351.7822987,4.31,'11111222,11111222,11111222' 
TABS,ioos:station:wmo:42046:1,2014-08-04T15:30:00Z,27.8903,-94.0367,4.0,4.120449005,5.710369325,4.98,'11111222,11111222,11111222' 
TABS,ioos:station:wmo:42046:1,2014-08-04T16:00:00Z,27.8903,-94.0367,4.0,3.85996114,15.47619071,4.58,'11111222,11111222,11111222' 
TABS,ioos:station:wmo:42046:1,2014-08-04T16:30:00Z,27.8903,-94.0367,4.0,3.565276988,13.95804698,4.06,'11111222,11111222,11111222' 
TABS,ioos:station:wmo:42046:1,2014-08-04T17:00:00Z,27.8903,-94.0367,4.0,3.643542232,38.53671365,4.43,'11111222,11111222,11111222' 
TABS,ioos:station:wmo:42046:1,2014-08-04T17:30:00Z,27.8903,-94.0367,4.0,3.134597263,32.62511451,3.74,'11111222,11111222,11111222' 
TABS,ioos:station:wmo:42046:1,2014-08-04T18:00:00Z,27.8903,-94.0367,4.0,3.968904131,41.1177165,4.77,'11111222,11111222,11111222' 
TABS,ioos:station:wmo:42046:1,2014-08-04T18:30:00Z,27.8903,-94.0367,4.0,3.877434719,26.16827527,4.89,'11111222,11111222,11111222' 